When you browse on this site, cookies collect data to enhance your experience and personalize the content and advertising you see.
Visit our Privacy Policy to learn more. By continuing to use the site, you agree to this use of cookies and data.
  • In Latvia
  • List of Countries
  • For 7 days
  • Water Temperature
  • Satellite Maps
  • Weather Map
  • Weather Widgets
  • user-avatar
    Login

    Hourly Weather Mauritius

    Today, 22 July, Monday

    Time Temperature Precipitation Wind Pressure Humidity
    00:00 +20°C° 0 mm 2 mps 723 mmHg 89%
    01:00 +21°C° 0 mm 1 mps 723 mmHg 90%
    02:00 +21°C° 0 mm 1 mps 723 mmHg 90%
    03:00 +20°C° 0 mm 1 mps 722 mmHg 90%
    04:00 +20°C° 0 mm 1 mps 722 mmHg 89%
    05:00 +20°C° 0 mm 1 mps 722 mmHg 89%
    06:00 +20°C° 0 mm 1 mps 722 mmHg 88%
    07:00 +20°C° 0 mm 1 mps 722 mmHg 88%
    08:00 +22°C° 0 mm 1 mps 723 mmHg 79%
    09:00 +23°C° 0 mm 1 mps 723 mmHg 71%
    10:00 +24°C° 0 mm 1 mps 724 mmHg 62%
    11:00 +24°C° 0.3 mm 3 mps 723 mmHg 64%
    12:00 +23°C° 0.3 mm 5 mps 723 mmHg 67%
    13:00 +23°C° 0.3 mm 6 mps 723 mmHg 69%
    14:00 +21°C° 0.5 mm 7 mps 723 mmHg 72%
    15:00 +20°C° 0.5 mm 8 mps 723 mmHg 76%
    16:00 +18°C° 0.5 mm 9 mps 722 mmHg 79%
    17:00 +18°C° 0 mm 9 mps 723 mmHg 78%
    18:00 +18°C° 0 mm 9 mps 723 mmHg 77%
    19:00 +18°C° 0 mm 8 mps 724 mmHg 77%
    20:00 +17°C° 0.1 mm 8 mps 724 mmHg 78%
    21:00 +17°C° 0.1 mm 7 mps 724 mmHg 79%
    22:00 +17°C° 0.1 mm 7 mps 725 mmHg 80%
    23:00 +17°C° 0.1 mm 6 mps 724 mmHg 80%

    Tomorrow, 23 July, Tuesday

    Time Temperature Precipitation Wind Pressure Humidity
    00:00 +17°C° 0.1 mm 6 mps 724 mmHg 81%
    01:00 +17°C° 0.1 mm 6 mps 724 mmHg 81%
    02:00 +17°C° 0 mm 6 mps 724 mmHg 82%
    03:00 +17°C° 0 mm 6 mps 723 mmHg 83%
    04:00 +17°C° 0 mm 6 mps 723 mmHg 84%
    05:00 +17°C° 0 mm 6 mps 723 mmHg 84%
    06:00 +17°C° 0 mm 6 mps 723 mmHg 83%
    07:00 +17°C° 0 mm 6 mps 724 mmHg 83%
    08:00 +17°C° 0 mm 7 mps 724 mmHg 79%
    09:00 +18°C° 0 mm 7 mps 724 mmHg 75%
    10:00 +20°C° 0 mm 7 mps 725 mmHg 72%
    11:00 +20°C° 0 mm 7 mps 724 mmHg 71%
    12:00 +20°C° 0 mm 8 mps 724 mmHg 71%
    13:00 +21°C° 0 mm 8 mps 724 mmHg 70%
    14:00 +21°C° 0.1 mm 8 mps 723 mmHg 71%
    15:00 +20°C° 0.1 mm 8 mps 723 mmHg 73%
    16:00 +20°C° 0.1 mm 8 mps 723 mmHg 74%
    17:00 +20°C° 0.1 mm 8 mps 723 mmHg 75%
    18:00 +18°C° 0.1 mm 8 mps 724 mmHg 76%
    19:00 +18°C° 0.1 mm 8 mps 724 mmHg 77%
    20:00 +18°C° 0 mm 8 mps 724 mmHg 77%
    21:00 +18°C° 0 mm 8 mps 724 mmHg 77%
    22:00 +18°C° 0 mm 8 mps 724 mmHg 78%
    23:00 +18°C° 0.1 mm 7 mps 724 mmHg 79%

    Day after tomorrow, 24 July, Wednesday

    Time Temperature Precipitation Wind Pressure Humidity
    00:00 +18°C° 0.1 mm 7 mps 724 mmHg 81%
    01:00 +17°C° 0.1 mm 7 mps 724 mmHg 83%
    02:00 +17°C° 0.1 mm 7 mps 724 mmHg 83%
    03:00 +17°C° 0.1 mm 7 mps 723 mmHg 82%
    04:00 +17°C° 0.1 mm 7 mps 723 mmHg 82%
    05:00 +17°C° 0.1 mm 7 mps 723 mmHg 82%
    06:00 +17°C° 0.1 mm 7 mps 724 mmHg 82%
    07:00 +18°C° 0.1 mm 7 mps 724 mmHg 81%
    08:00 +18°C° 0.2 mm 8 mps 724 mmHg 78%
    09:00 +19°C° 0.2 mm 9 mps 725 mmHg 76%
    10:00 +21°C° 0.2 mm 9 mps 725 mmHg 73%
    11:00 +21°C° 0.2 mm 9 mps 725 mmHg 73%
    12:00 +21°C° 0.2 mm 9 mps 724 mmHg 73%
    13:00 +21°C° 0.2 mm 9 mps 724 mmHg 72%
    14:00 +21°C° 0.1 mm 9 mps 724 mmHg 74%
    15:00 +19°C° 0.1 mm 9 mps 723 mmHg 75%
    16:00 +19°C° 0.1 mm 9 mps 723 mmHg 76%
    17:00 +19°C° 0.1 mm 9 mps 723 mmHg 77%
    18:00 +19°C° 0.1 mm 9 mps 724 mmHg 79%
    19:00 +19°C° 0.1 mm 9 mps 724 mmHg 80%
    20:00 +19°C° 0.1 mm 9 mps 724 mmHg 81%
    21:00 +19°C° 0.1 mm 9 mps 724 mmHg 81%
    22:00 +20°C° 0.1 mm 8 mps 725 mmHg 81%
    23:00 +20°C° 0.2 mm 8 mps 725 mmHg 82%

    25 July, Thursday

    Time Temperature Precipitation Wind Pressure Humidity
    00:00 +20°C° 0.2 mm 8 mps 725 mmHg 82%
    01:00 +20°C° 0.2 mm 7 mps 724 mmHg 83%
    02:00 +18°C° 0.3 mm 7 mps 724 mmHg 84%
    03:00 +18°C° 0.3 mm 7 mps 724 mmHg 84%
    04:00 +18°C° 0.3 mm 7 mps 724 mmHg 84%
    05:00 +18°C° 0.2 mm 7 mps 724 mmHg 84%
    06:00 +18°C° 0.2 mm 7 mps 724 mmHg 84%
    07:00 +18°C° 0.2 mm 7 mps 725 mmHg 84%
    08:00 +20°C° 0.1 mm 7 mps 725 mmHg 81%
    09:00 +21°C° 0.1 mm 7 mps 725 mmHg 78%
    10:00 +21°C° 0.1 mm 8 mps 725 mmHg 75%
    11:00 +22°C° 0.1 mm 8 mps 725 mmHg 73%
    12:00 +22°C° 0.1 mm 8 mps 724 mmHg 72%
    13:00 +22°C° 0.1 mm 8 mps 724 mmHg 70%
    14:00 +22°C° 0 mm 8 mps 724 mmHg 71%
    15:00 +22°C° 0 mm 9 mps 724 mmHg 72%
    16:00 +21°C° 0 mm 9 mps 723 mmHg 73%
    17:00 +21°C° 0 mm 9 mps 724 mmHg 75%
    18:00 +19°C° 0 mm 9 mps 724 mmHg 77%
    19:00 +19°C° 0 mm 9 mps 724 mmHg 79%
    20:00 +19°C° 0.1 mm 9 mps 724 mmHg 79%
    21:00 +19°C° 0.1 mm 9 mps 724 mmHg 80%
    22:00 +19°C° 0.1 mm 9 mps 724 mmHg 80%
    23:00 +20°C° 0.1 mm 8 mps 724 mmHg 81%

    26 July, Friday

    Time Temperature Precipitation Wind Pressure Humidity
    00:00 +20°C° 0.1 mm 8 mps 724 mmHg 81%
    01:00 +20°C° 0.1 mm 8 mps 724 mmHg 82%
    02:00 +20°C° 0 mm 8 mps 724 mmHg 83%
    03:00 +20°C° 0 mm 8 mps 723 mmHg 85%
    04:00 +20°C° 0 mm 8 mps 723 mmHg 86%
    05:00 +20°C° 0.1 mm 8 mps 723 mmHg 87%
    06:00 +20°C° 0.1 mm 8 mps 724 mmHg 87%
    07:00 +20°C° 0.1 mm 8 mps 724 mmHg 88%
    08:00 +20°C° 0.1 mm 8 mps 724 mmHg 88%
    09:00 +21°C° 0.1 mm 8 mps 724 mmHg 88%
    10:00 +21°C° 0.1 mm 8 mps 724 mmHg 87%
    11:00 +21°C° 0.1 mm 8 mps 724 mmHg 88%
    12:00 +21°C° 0.1 mm 8 mps 723 mmHg 88%
    13:00 +21°C° 0.1 mm 8 mps 723 mmHg 88%
    14:00 +21°C° 0.3 mm 8 mps 723 mmHg 89%
    15:00 +21°C° 0.3 mm 7 mps 722 mmHg 90%
    16:00 +21°C° 0.3 mm 7 mps 722 mmHg 90%
    17:00 +21°C° 0.2 mm 7 mps 722 mmHg 91%
    18:00 +21°C° 0.2 mm 7 mps 723 mmHg 91%
    19:00 +21°C° 0.2 mm 7 mps 723 mmHg 92%
    20:00 +21°C° 0.2 mm 6 mps 723 mmHg 92%
    21:00 +21°C° 0.2 mm 6 mps 723 mmHg 92%
    22:00 +21°C° 0.2 mm 6 mps 723 mmHg 92%
    23:00 +21°C° 0.1 mm 6 mps 723 mmHg 92%

    27 July, Saturday

    Time Temperature Precipitation Wind Pressure Humidity
    00:00 +21°C° 0.1 mm 6 mps 723 mmHg 92%
    01:00 +21°C° 0.1 mm 5 mps 723 mmHg 92%
    02:00 +21°C° 0.1 mm 5 mps 722 mmHg 93%
    03:00 +21°C° 0.1 mm 5 mps 722 mmHg 93%
    04:00 +21°C° 0.1 mm 4 mps 722 mmHg 93%
    05:00 +21°C° 0 mm 4 mps 722 mmHg 93%
    06:00 +21°C° 0 mm 4 mps 722 mmHg 94%
    07:00 +21°C° 0 mm 4 mps 723 mmHg 94%
    08:00 +22°C° 0 mm 3 mps 723 mmHg 90%
    09:00 +24°C° 0 mm 3 mps 723 mmHg 86%
    10:00 +25°C° 0 mm 2 mps 724 mmHg 83%
    11:00 +25°C° 0.1 mm 2 mps 723 mmHg 81%
    12:00 +25°C° 0.1 mm 2 mps 723 mmHg 79%
    13:00 +26°C° 0.1 mm 2 mps 723 mmHg 77%
    14:00 +26°C° 0.1 mm 2 mps 723 mmHg 77%
    15:00 +25°C° 0.1 mm 3 mps 723 mmHg 78%
    16:00 +25°C° 0.1 mm 3 mps 723 mmHg 78%
    17:00 +25°C° 0.1 mm 2 mps 723 mmHg 81%
    18:00 +24°C° 0.1 mm 2 mps 723 mmHg 84%
    19:00 +24°C° 0.1 mm 2 mps 723 mmHg 87%
    20:00 +23°C° 0 mm 2 mps 724 mmHg 88%
    21:00 +23°C° 0 mm 2 mps 724 mmHg 89%
    22:00 +23°C° 0 mm 2 mps 724 mmHg 90%
    23:00 +23°C° 0 mm 2 mps 724 mmHg 91%
    Show more